sat.trackr.live / text

‹ back to catalog

SKYSAT-C5

NORAD 41772 · 2016-058C

PAYLOAD ACTIVE UNKNOWN

§ Identity

Operator
Country
US
Launch date
2016-09-16
Launch site
FRGUI
Launch vehicle
Mass (kg)
RCS (m²)
0.43

Purposes: earth_obs

External: N2YO · Heavens-Above · Gunter

§ Orbital elements

Epoch: 2026-09-20T01:41:58.204320Z

Period
93.86 min
Inclination
97.0399°
Eccentricity
0.0000753
Mean motion
15.34251121 rev/d
Perigee alt
462.6 km
Apogee alt
463.7 km
Semi-major
6,841.3 km
B*
1.4096e-4
RAAN
299.3852°
Arg perigee
11.6123°
Mean anomaly
348.5138°
Rev number
55,829

§ Raw data

SKYSAT-C51 41772U 16058C   26263.07081255  .00004599  00000+0  14096-3 0  99972 41772  97.0399 299.3852 0000753  11.6123 348.5138 15.34251121558293

JSON: /api/v1/satellites/41772 · /tle

For live sub-satellite position, see the globe view (requires WebGL).

§ Visibility from observer

Set your observer location to see the next 7 days of passes ≥ 10°. The values pass through the URL so the page stays shareable.

No JS? Fill the form by hand. The geolocation button needs JavaScript.